N6494P KMFI-KCSQ

Flight info

Callsign N6494P
Flight time N/A
Altitude 6000
Route FALAR T251 ALO T397 DSM V6 MIDLE
Aircraft PA24/L-SDGRY/S

Departure

Time 2025-08-21 11:14
Airport Marshfield Municipal Airport (KMFI)

Arrival

Time N/A
Airport Creston Municipal Airport (KCSQ)
Time Latitude Longitude Altitude Speed Heading
2025-08-21 10:57 44.64022 -90.18805 1265 ft 0 kts
2025-08-21 11:05 44.63968 -90.18694 1265 ft 17 kts 150°
2025-08-21 11:05 44.63925 -90.18409 1254 ft 13 kts 92°
2025-08-21 11:06 44.63919 -90.18314 1253 ft 0 kts 131°
2025-08-21 11:10 44.63830 -90.18323 1253 ft 0 kts 228°
2025-08-21 11:12 44.63793 -90.18377 1257 ft 32 kts 224°
2025-08-21 11:12 44.62997 -90.19308 1556 ft 83 kts 207°
2025-08-21 11:13 44.61865 -90.19927 2005 ft 86 kts 189°
2025-08-21 11:13 44.60768 -90.20542 2407 ft 86 kts 216°
2025-08-21 11:14 44.59849 -90.21715 2728 ft 86 kts 235°
2025-08-21 11:15 44.59095 -90.24090 3354 ft 97 kts 226°
2025-08-21 11:15 44.58154 -90.25416 3875 ft 94 kts 223°
2025-08-21 11:15 44.57685 -90.26042 4140 ft 93 kts 222°
2025-08-21 11:16 44.56721 -90.27297 4569 ft 96 kts 222°
2025-08-21 11:16 44.55740 -90.28571 4977 ft 97 kts 222°
2025-08-21 11:17 44.54753 -90.29842 5361 ft 98 kts 222°
2025-08-21 11:17 44.53753 -90.31120 5737 ft 99 kts 222°
2025-08-21 11:18 44.52720 -90.32421 6113 ft 100 kts 222°
2025-08-21 11:19 44.51172 -90.34383 6651 ft 102 kts 222°
2025-08-21 11:19 44.50114 -90.35712 6971 ft 103 kts 222°
2025-08-21 11:19 44.49577 -90.36381 7131 ft 103 kts 221°
2025-08-21 11:20 44.48487 -90.37731 7433 ft 105 kts 221°
2025-08-21 11:20 44.47375 -90.39093 7744 ft 107 kts 221°
2025-08-21 11:21 44.46244 -90.40467 8040 ft 109 kts 221°
2025-08-21 11:21 44.44985 -90.42022 8014 ft 130 kts 223°
2025-08-21 11:22 44.43610 -90.43701 8006 ft 130 kts 221°
2025-08-21 11:23 44.41554 -90.46152 8017 ft 129 kts 221°
2025-08-21 11:23 44.40173 -90.47785 8014 ft 130 kts 221°
2025-08-21 11:23 44.39483 -90.48599 8012 ft 130 kts 221°
2025-08-21 11:24 44.37365 -90.51092 8020 ft 135 kts 221°
2025-08-21 11:24 44.36642 -90.51944 8021 ft 136 kts 221°
2025-08-21 11:25 44.35184 -90.53657 8023 ft 139 kts 221°
2025-08-21 11:25 44.33701 -90.55393 8015 ft 139 kts 221°
2025-08-21 11:26 44.32210 -90.57135 8017 ft 139 kts 221°
2025-08-21 11:27 44.29980 -90.59730 8014 ft 139 kts 220°
2025-08-21 11:27 44.28494 -90.61451 8016 ft 139 kts 220°
2025-08-21 11:27 44.27749 -90.62311 8017 ft 139 kts 220°
2025-08-21 11:28 44.25516 -90.64880 8016 ft 139 kts 220°
2025-08-21 11:28 44.24771 -90.65733 8019 ft 139 kts 220°
2025-08-21 11:29 44.22548 -90.68285 8019 ft 139 kts 220°
2025-08-21 11:29 44.21803 -90.69138 8017 ft 138 kts 220°
2025-08-21 11:30 44.20314 -90.70840 8019 ft 138 kts 220°
2025-08-21 11:31 44.18077 -90.73383 8021 ft 138 kts 220°
2025-08-21 11:31 44.16585 -90.75073 8016 ft 138 kts 220°
2025-08-21 11:31 44.15842 -90.75912 8016 ft 137 kts 220°
2025-08-21 11:32 44.14355 -90.77588 8019 ft 138 kts 220°
2025-08-21 11:32 44.12860 -90.79270 8020 ft 138 kts 220°
2025-08-21 11:33 44.11368 -90.80941 8017 ft 138 kts 220°
2025-08-21 11:33 44.09867 -90.82620 8016 ft 139 kts 219°
2025-08-21 11:34 44.08344 -90.84325 8014 ft 142 kts 219°
2025-08-21 11:35 44.06000 -90.86945 8010 ft 145 kts 219°
2025-08-21 11:35 44.04423 -90.88696 8009 ft 145 kts 219°
2025-08-21 11:35 44.03633 -90.89574 8010 ft 145 kts 219°
2025-08-21 11:36 44.02050 -90.91325 8008 ft 145 kts 219°
2025-08-21 11:37 43.99986 -90.93569 7660 ft 110 kts 218°
2025-08-21 11:37 43.99382 -90.94215 7403 ft 105 kts 219°
2025-08-21 11:37 43.98224 -90.95477 6851 ft 102 kts 219°
2025-08-21 11:38 43.97093 -90.96725 6254 ft 102 kts 219°
2025-08-21 11:39 43.95436 -90.98579 5374 ft 100 kts 219°
2025-08-21 11:39 43.94898 -90.99186 5083 ft 100 kts 219°
2025-08-21 11:39 43.93842 -91.00390 4509 ft 97 kts 219°
2025-08-21 11:40 43.92290 -91.02155 3662 ft 96 kts 219°
2025-08-21 11:40 43.91772 -91.02730 3383 ft 95 kts 219°
2025-08-21 11:41 43.90748 -91.03866 2829 ft 94 kts 218°
2025-08-21 11:41 43.89737 -91.05001 2256 ft 93 kts 218°
2025-08-21 11:42 43.88742 -91.06137 1696 ft 93 kts 218°
2025-08-21 11:43 43.87287 -91.07816 969 ft 58 kts 226°
2025-08-21 11:43 43.87111 -91.08002 769 ft 0 kts 209°